Location: Oklahoma City
(35.4680°N, 97.5160°W)
Time: 01:04:26
(UTC-05:00)

ISS - Visible Passes

Search period start: 05 July 2015 00:00
Search period end: 15 July 2015 00:00
Orbit: 398 x 403 km, 51.6° (Epoch: 04 July)

Date Brightness Start Highest point End Pass type
(mag) Time Alt. Az. Time Alt. Az. Time Alt. Az.
09 Jul -0.6 05:31:11 10° SSE 05:32:17 12° SE 05:33:31 10° ESE visible
11 Jul -1.8 05:18:55 13° S 05:21:19 29° SE 05:24:11 10° ENE visible
12 Jul -0.9 04:27:36 13° SE 04:27:52 14° SE 04:29:37 10° E visible
13 Jul -3.4 05:08:47 27° SW 05:10:22 81° SE 05:13:38 10° NE visible
14 Jul -2.0 04:17:19 32° ESE 04:17:19 32° ESE 04:19:50 10° ENE visible
14 Jul -1.4 05:50:42 10° W 05:53:17 21° NNW 05:55:51 10° NNE visible
